Starlink 33564

operational
NORAD ID: 62286 Int'l Des: 2024-237 Owner: SPXS Country: US Constellation: starlink
LEOCIRCULAR

Starlink 33564について

説明を読み込み中...

リアルタイム位置

3D地球を読み込み中...

次回通過

高度履歴

Altitude vs Time

uPlot chart will show altitude changes over time

軌道要素

1 62286U 24237V 25304.83423937 .00023495 00000-0 86181-3 0 9995
2 62286 43.0017 224.2043 0001269 285.5744 74.4968 15.27533045 51482
Epoch: Oct 31, 2025 • Age: 17 hours

現在のステータス

高度 490.8 km
速度 7.62 km/s
衛星直下点 -30.11°S, 153.14°W
打ち上げ日 Dec 8, 2024
運用期間 0.8 years
タイプ internet

技術仕様

分類 Payload
質量 530.00 kg
乾燥質量 500.00 kg
総質量 530.00 kg
長さ 0.30 m
直径 4.10 m
スパン 29.00 m
形状 Box + pan
製造者 SPXS
バスタイプ Starlink V2MO
フェーズステータス In Orbit
所有者/国 SPXS/US

大規模コンステレーション

Loading constellations...